Location: Houston
(29.7630°N, 95.3630°W)
Time: 00:27:32
(UTC-05:00)

Saudisat 1A - Visible Passes

Search period start: 01 November 2014 00:00
Search period end: 10 November 2014 23:00
Orbit: 597 x 608 km, 64.6° (Epoch: 31 October)

Date Brightness Start Highest point End Pass type
(mag) Time Alt. Az. Time Alt. Az. Time Alt. Az.
01 Nov 7.8 05:55:45 50° SW 05:56:51 84° WNW 06:01:15 10° NNE visible
02 Nov 8.5 05:09:17 38° NW 05:09:17 38° NW 05:13:03 10° N visible
03 Nov 9.7 05:22:22 18° NNW 05:22:22 18° NNW 05:24:23 10° N visible
